Location: Peterborough
(44.3091°N, 78.3197°W)
Time: 16:57:14
(UTC-04:00)

Explorer 7 - Pass Details

Date: 31 March 2023
Orbit: 477 x 653 km, 50.3° (Epoch: 04 June)

Event Time Altitude Azimuth Distance (km) Brightness Sun altitude
Rises 14:46:38 0° 210° (SSW) 2,963 11.3 45.4°
Reaches altitude 10° 14:49:12 10° 200° (SSW) 2,044 10.7 45.2°
Maximum altitude 14:53:21 31° 139° (SE) 1,108 8.9 44.8°
Drops below altitude 10° 14:57:24 10° 77° (ENE) 1,984 9.4 44.3°
Sets 14:59:50 0° 67° (ENE) 2,863 10.1 44.1°
